Regional Weather Roundup
Issued by NWS Upton, NY

Current Version | Previous Version | Graphics & Text | Print | Product List | Glossary Off
Versions: 1 2 3 4 5 6 7 8 9 10 11 12 13 14 15 16 17 18 19 20 21 22 23 24 25 26 27 28 29 30 31 32 33 34 35 36 37 38 39 40 41 42 43 44 45 46 47 48 49 50

283
ASUS41 KOKX 101404
RWROKX

REGIONAL WEATHER ROUNDUP
NATIONAL WEATHER SERVICE NEW YORK NY
900 AM EST WED FEB 10 2016

NOTE: "FAIR" INDICATES FEW OR NO CLOUDS BELOW 12,000 FEET WITH NO
SIGNIFICANT WEATHER AND/OR OBSTRUCTIONS TO VISIBILITY.

NYZ071-072-176-178-NJZ106-104-101500-
NEW YORK CITY METRO AREA


CITY           SKY/WX    TMP DP  RH WIND       PRES   REMARKS
CENTRAL PARK   CLOUDY    34  29  82 VRB3      29.64R HAZE
LAGUARDIA APRT LGT SNOW  36  29  75 W9        29.62R WCI  29
KENNEDY INTL   CLOUDY    35  30  82 W15       29.64R WCI  25
NEWARK/LIBERTY LGT SNOW  32  30  92 W9        29.63R FOG     WCI  24
BRNX BOT. GARD   N/A     34  30  86 W7        29.61F WCI  28
TETERBORO      CLOUDY    35  28  75 VRB5      29.62R HAZE    WCI  31
$$

NYZ177-179-078>081-101500-
LONG ISLAND NEW YORK

CITY           SKY/WX    TMP DP  RH WIND       PRES   REMARKS
FARMINGDALE    CLOUDY    34  30  85 SW3       29.62R FOG
ISLIP          CLOUDY    32  30  92 SW3       29.60S FOG
SHIRLEY        CLOUDY    30  30 100 CALM      29.62S FOG
RIVERHEAD        N/A     32  30  93 CALM      29.60R
WESTHAMPTON    LGT SNOW  30  30 100 CALM      29.63S FOG
EAST HAMPTON   LGT SNOW  31  30  96 CALM      29.61S
MONTAUK POINT    N/A     34  33  96 CALM      29.62R
$$

NYZ052-065-067-101500-
HUDSON VALLEY

CITY           SKY/WX    TMP DP  RH WIND       PRES   REMARKS
WHITE PLAINS   CLOUDY    32  29  88 W3        29.58S FOG
NEWBURGH       CLOUDY    32  30  93 W10       29.59R WCI  24
MONTGOMERY     NOT AVBL
POUGHKEEPSIE   CLOUDY    33  29  85 CALM      29.60R
ALBANY         LGT SNOW  30  27  88 S5        29.58R FOG     WCI  25
$$

NJZ001-105-106-008-010-013-015-019>022-104-101500-
NEW JERSEY

CITY           SKY/WX    TMP DP  RH WIND       PRES   REMARKS
NEWARK/LIBERTY LGT SNOW  32  30  92 W9        29.63R FOG     WCI  24
TETERBORO      CLOUDY    35  28  75 VRB5      29.62R HAZE    WCI  31
CALDWELL       CLOUDY    33  29  85 W6        29.63R FOG     WCI  28
MORRISTOWN     CLOUDY    34  30  86 MISG      29.64R FOG
SOMERVILLE     LGT SNOW  33  28  81 VRB7      29.64R WCI  27
SUSSEX         LGT SNOW  31  28  89 SW6       29.61R FOG     WCI  25
ANDOVER          N/A     30  27  88 SW6       29.62R WCI  24
TRENTON        LGT SNOW  31  27  85 W10       29.67R FOG     WCI  22
MILLVILLE      LGT SNOW  30  27  88 W15G21    29.73R FOG     WCI  19
ATLANTIC CITY  LGT SNOW  31  28  89 W14       29.70R FOG     WCI  21
WRIGHTSTOWN    LGT SNOW  30  30 100 NW12      29.66R FOG     WCI  21
TOMS RIVER     CLOUDY    30  27  86 W16G22    29.67R WCI  19
BELMAR         CLOUDY    32  23  69 W14       29.65R WCI  22
$$

PAZ047>061-062-071-101500-
EASTERN PENNSYLVANIA

CITY           SKY/WX    TMP DP  RH WIND       PRES   REMARKS
PHILADELPHIA   LGT SNOW  31  26  82 W15       29.73R VSB 1   WCI  20
ALLENTOWN      CLOUDY    31  22  69 W12       29.66R WCI  22
SCRANTON       CLOUDY    28  23  81 SW8       29.61R WCI  20
$$

CTZ002-004>006-009-010-012-RIZ004-006-007-MAZ004-011-015-101500-
SOUTHERN NEW ENGLAND
 IN CT

CITY           SKY/WX    TMP DP  RH WIND       PRES   REMARKS
BRADLEY INTL   LGT SNOW  27  25  92 CALM      29.59S VSB 3/4
HARTFORD       LGT SNOW  30  28  92 CALM      29.61S VSB 3/4
DANBURY        LGT SNOW  31  26  82 SW5       29.59S VSB 1   WCI  26
WTRBRY/OXFORD  LGT SNOW  28  19  69 CALM      29.58S FOG
BRIDGEPORT     CLOUDY    33  30  88 CALM      29.61S FOG
MERIDEN        LGT SNOW  30  27  88 CALM      29.61R FOG
NEW HAVEN      CLOUDY    31  30  96 CALM      29.61R FOG
CHESTER        LGT SNOW  30  30 100 CALM      29.60S
GROTON         LGT SNOW  30  30 100 N3        29.61S FOG
WILLIMANTIC    LGT SNOW  24  22  91 CALM      29.61S FOG

 IN RI

CITY           SKY/WX    TMP DP  RH WIND       PRES   REMARKS
PROVIDENCE     LGT SNOW  28  25  88 CALM      29.63S FOG
BLOCK ISLAND   CLOUDY    34  32  93 SE6       29.59F WCI  29
WESTERLY       LGT SNOW  29  26  89 N3        29.62S FOG

 IN MA

CITY           SKY/WX    TMP DP  RH WIND       PRES   REMARKS
BOSTON         LGT SNOW  27  24  89 S8        29.62F FOG     WCI  19
WORCESTER      LGT SNOW  25  23  92 SW7       29.55S VSB 1   WCI  17
WESTFIELD      LGT SNOW  25  23  92 CALM      29.59S VSB 3/4
PROVINCETOWN   LGT RAIN  34  28  79 W5        29.63F WCI  30
NANTUCKET      CLOUDY    34  29  82 NE3       29.62S
$$

ANZ330-335-338-340-345-350-353-355-101500-
COASTAL MARINE OBSERVATIONS


STATION/POSITION TIME  SKY/WX   TEMP    WIND        PRES    VSBY  WAVE
                                AIR SEA DIR/SP/G                  HT/PER
                 (UTC)          (F)     (DEG/KT/KT) (MB)    (MI)  (FT/S)
NY HARB ENTRANCE 1250            35 43  280/ 14/ 16 1002.3          4/10
4S FIRE IS       NOT AVBL
20S FIRE ISLAND  1250            36 44  290/  8/ 12 1002.4          4/12
GREAT SOUTH BAY  NOT AVBL
23SW MTP         1350            37 45  180/  2/  4 1002.1          5/11
HUDSON CANYON    1250            37 49              1002.0          6/10
KINGS POINT      1300            34 38  320/  8/ 10 1002.3
EXECUTION ROCKS  NOT AVBL
CENTRAL LI SOUND 1300            33     180/  4/  6   N/A           0
EASTERN LI SOUND 1300            32 41   50/  6/  8   N/A
ROBBINS REEF     1300            32     280/ 16/ 19 1002.1
$$


>>>>>>>>>>>>>>>>>>>>>>>>>>>> KEY <<<<<<<<<<<<<<<<<<<<<<<<<<<
>                                                          <
>     SKY/WX - SKY CONDITION/PRESENT WEATHER               <
>     TMP    - TEMPERATURE IN FAHRENHEIT                   <
>     DP     - DEWPOINT IN FAHRENHEIT                      <
>     RH     - RELATIVE HUMIDITY IN PERCENT                <
>     WIND   - DIRECTION AND SPEED IN MPH                  <
>     PRES   - MEAN SEA LEVEL PRESSURE IN INCHES OF HG     <
>     WCI    - WIND CHILL INDEX                            <
>     VSB    - VISIBILITY IN MILES                         <
>     HX     - HEAT INDEX                                  <
>     TC     - TEMPERATURE IN CELSIUS                      <
>     VRB    - VARIABLE WIND DIRECTION                     <
>                                                          <
>>>>>>>>>>>>>>>>>>>>>>>>>>>> KEY <<<<<<<<<<<<<<<<<<<<<<<<<<<






USA.gov is the U.S. government's official web portal to all federal, state and local government web resources and services.